[[{"header":{"parameterUnit":"m.s-1","parameterCategory":1,"la1":30.2991,"la2":30.254,"lo1":-89.0895,"lo2":-89.0444,"dy":0.0017,"dx":0.0017,"nx":28,"ny":28,"refTime":"2024-07-12T21:00:00:Z","depth":0,"parameterNumber":2,"parameterNumberName":"U-component_of_WINDS"},"data":[0,0,0,0,0,0,0,0,0,0,0,0,0,0,0,0,0,0,0,0,0,0,0,0,0,0,0,0,0,0,0,0,0,0,0,0,0,0,0,0,0,0,0,0,0,0,0,0,0,0,0,0,0,0,0,0,0,0,3.6708,3.671,0,3.6872,3.6874,3.6876,3.6853,3.685,3.6847,3.6845,3.7015,3.7022,3.7029,0,0,0,0,0,0,0,0,0,0,0,0,0,3.6376,3.6383,3.6708,3.671,3.6712,3.6872,3.6874,3.6877,3.6853,3.685,3.6847,3.6844,3.7012,3.7021,3.7029,0,0,0,0,0,0,0,0,0,0,0,0,0,3.6529,3.6385,3.6708,3.672,3.6723,3.6872,3.6874,3.6877,3.6854,3.685,3.6846,3.6842,3.701,3.702,3.7031,3.7178,0,0,3.7063,3.7068,0,0,0,0,0,0,0,0,3.652,3.6541,3.6716,3.6719,3.6723,3.6838,3.682,3.6978,3.6855,3.6804,3.6845,3.684,3.6959,3.6974,3.7014,3.7186,3.7194,3.7064,3.707,3.7075,3.7078,0,0,0,0,0,0,0,3.6509,3.6534,3.6773,3.6719,3.6723,3.6718,3.6735,3.685,3.6903,3.6808,3.6807,3.6827,3.696,3.7004,3.7018,3.7196,3.7064,3.7073,3.708,3.7084,3.7497,3.7501,0,0,0,0,0,0,3.6495,3.6525,3.6768,3.6778,3.6609,3.6727,3.6746,3.6805,3.6902,3.6912,3.683,3.6825,3.6987,3.7005,3.7023,3.7201,3.7075,3.7085,3.7091,3.7492,3.7498,3.7503,0,0,0,0,0,0,3.6488,3.6517,3.6761,3.6651,3.6682,3.6737,3.6804,3.6811,3.6854,3.6918,3.6928,3.6864,3.6985,3.7009,3.714,3.7207,3.709,3.7099,3.7487,3.7494,3.75,3.7559,0,0,0,0,0,0,3.6479,3.6515,3.6571,3.6653,3.6688,3.6874,3.6808,3.6817,3.6872,3.6867,3.6953,3.6963,3.6983,3.7124,3.715,3.7219,3.7108,3.7481,3.749,3.7498,3.7551,3.7567,3.7581,0,0,0,0,0,3.6467,3.6582,3.6574,3.6604,3.676,3.6878,3.6899,3.6919,3.6877,3.6934,3.6976,3.696,3.7196,3.7137,3.7167,3.724,3.7477,3.7487,3.7497,3.7545,3.7564,3.758,0,0,0,0,0,0,3.6509,3.6593,3.6585,3.673,3.6797,3.6874,3.6947,3.6939,3.702,3.7012,3.7035,3.7055,3.7187,3.7227,3.7161,3.7388,3.733,3.7347,3.7356,3.7375,3.739,3.7376,3.7116,0,0,0,0,0,3.6534,3.6623,3.6693,3.6814,3.6848,3.6892,3.6944,3.6954,3.7025,3.7053,3.7104,3.7174,3.7263,3.7322,3.7408,3.7558,3.7575,3.7623,3.7637,3.7649,3.7663,3.7743,3.7764,3.7537,3.7537,3.7536,0,0,3.6589,3.6646,3.6701,3.6824,3.6877,3.6968,3.6916,3.7015,3.7083,3.7069,3.7195,3.7235,3.7314,3.7454,3.7519,3.7492,3.773,3.7662,3.7671,3.7678,3.7756,3.7777,3.7796,3.7544,3.7542,3.7541,0,0,3.6734,3.6787,3.6893,3.6947,3.7027,3.7056,3.7081,3.716,3.7185,3.7312,3.7302,3.7384,3.7538,3.7594,3.7643,3.7809,3.7797,3.7837,3.7913,3.7991,3.8009,3.8025,3.8082,3.8103,3.7851,3.7851,3.7851,0,3.6792,3.6929,3.6948,3.7049,3.7102,3.7093,3.7199,3.7251,3.7356,3.7394,3.7362,3.7554,3.7607,3.7759,3.78,3.784,3.7869,3.7826,3.8005,3.8021,3.8036,3.8091,3.8113,3.7855,3.7855,3.7854,3.7854,0,3.6995,3.709,3.7166,3.7265,3.7328,3.7431,3.7467,3.7528,3.7533,3.7564,3.7693,3.7756,3.7854,3.7891,3.7898,3.8045,3.8025,3.7999,3.7941,3.8061,3.8113,3.8135,3.7861,3.786,3.7858,3.7857,0,0,3.717,3.7279,3.7306,3.7351,3.7439,3.7513,3.7616,3.771,3.7761,3.7834,3.792,3.8051,3.8026,3.8082,3.8095,3.8163,3.8288,3.8129,3.8131,3.8154,3.8452,3.8469,3.8493,3.8282,3.8286,3.8289,3.8445,0,3.7322,3.7502,3.7522,3.7683,3.777,3.7762,3.7852,3.7915,3.7948,3.8027,3.8063,3.8154,3.8117,3.815,3.8218,3.8259,3.8348,3.8248,3.8361,3.8365,3.8339,3.8521,3.854,3.8683,3.8465,3.8469,3.8471,0,3.7524,3.76,3.7769,3.7843,3.7881,3.7961,3.8048,3.8124,3.8196,3.8215,3.8276,3.828,3.8386,3.8325,3.8471,3.8402,3.845,3.8477,3.8483,3.8493,3.8424,3.8533,3.873,3.875,3.8504,3.8501,3.8499,0,3.7632,3.7778,3.7897,3.7936,3.8026,3.8082,3.8122,3.819,3.8245,3.8323,3.8358,3.8448,3.8496,3.8565,3.8592,3.8546,3.8736,3.8678,3.8753,3.8752,3.8792,3.8788,3.8996,3.8827,3.8826,3.8826,3.8825,0,3.7798,3.7901,3.7946,3.8019,3.8134,3.8157,3.8271,3.8309,3.8369,3.845,3.845,3.8525,3.8558,3.8639,3.8661,3.8777,3.88,3.8817,3.8821,3.8816,3.8813,3.8846,3.8836,3.8832,3.883,3.8829,3.8828,0,3.7938,3.7972,3.8101,3.8176,3.8197,3.8278,3.8342,3.8413,3.8444,3.8546,3.8571,3.8621,3.8716,3.8751,3.8867,3.8882,3.9015,3.9013,3.899,3.8991,3.9063,3.9055,3.9297,3.9329,3.9141,3.9142,3.9144,0,3.804,3.8119,3.8202,3.8255,3.8297,3.8383,3.8438,3.8465,3.8523,3.861,3.867,3.8764,3.8841,3.8993,3.904,3.9128,3.9126,3.9205,3.9139,3.9131,3.9124,3.9118,3.9125,3.9216,3.9218,3.922,3.9221,0,3.8218,3.8231,3.8311,3.8397,3.8463,3.8532,3.8599,3.8643,3.8679,3.8745,3.8841,3.89,3.9018,3.9111,3.9202,3.9244,3.9238,3.9242,3.9263,3.9257,3.924,3.9248,3.9021,3.9236,3.9234,3.9233,3.9232,3.9232,3.8341,3.841,3.8478,3.8567,3.8619,3.8682,3.8751,3.8791,3.8871,3.8968,3.8979,3.9082,3.9152,3.9273,3.9319,3.94,3.9378,3.941,3.9418,3.9425,3.9429,3.9229,3.9417,3.9417,3.9416,3.9416,3.9416,0,3.8517,3.856,3.8641,3.8734,3.8804,3.8793,3.8866,3.8925,3.9015,3.908,3.9155,3.9265,3.9355,3.9409,3.9499,3.9554,3.9554,3.9577,3.9572,3.9581,3.9444,3.9415,3.9575,3.9575,3.9575,3.9575,3.9575,3.9575,3.8616,3.8731,3.8752,3.8893,3.8936,3.9036,3.9078,3.9136,3.9187,3.931,3.9384,3.9418,3.9479,3.9573,3.9655,3.9669,3.9701,3.9725,3.9737,3.9607,3.9591,3.9575,3.9548,3.9733,3.9733,3.9866,3.9868,3.9868]},{"header":{"parameterUnit":"m.s-1","parameterCategory":1,"la1":30.2991,"la2":30.254,"lo1":-89.0895,"lo2":-89.0444,"dy":0.0017,"dx":0.0017,"nx":28,"ny":28,"refTime":"2024-07-12T21:00:00:Z","depth":0,"parameterNumber":3,"parameterNumberName":"V-component_of_WINDS"},"data":[0,0,0,0,0,0,0,0,0,0,0,0,0,0,0,0,0,0,0,0,0,0,0,0,0,0,0,0,0,0,0,0,0,0,0,0,0,0,0,0,0,0,0,0,0,0,0,0,0,0,0,0,0,0,0,0,0,0,0.406,0.406,0,0.4039,0.4039,0.4039,0.4015,0.4015,0.4014,0.4014,0.3993,0.3992,0.3992,0,0,0,0,0,0,0,0,0,0,0,0,0,0.4078,0.4077,0.406,0.406,0.4059,0.4039,0.4039,0.4039,0.4015,0.4015,0.4014,0.4014,0.3993,0.3992,0.3992,0,0,0,0,0,0,0,0,0,0,0,0,0,0.4065,0.4077,0.406,0.4045,0.4044,0.404,0.4039,0.4039,0.4015,0.4015,0.4014,0.4014,0.3993,0.3992,0.3992,0.4001,0,0,0.3991,0.3991,0,0,0,0,0,0,0,0,0.4066,0.4064,0.4048,0.4046,0.4045,0.4029,0.4038,0.4026,0.4015,0.4026,0.4014,0.4013,0.4005,0.4004,0.4001,0.4,0.3999,0.3991,0.3991,0.3991,0.399,0,0,0,0,0,0,0,0.4067,0.4065,0.4052,0.4047,0.4046,0.4039,0.4037,0.4035,0.4019,0.4025,0.4023,0.4021,0.4004,0.4002,0.4,0.3998,0.3991,0.3991,0.399,0.399,0.4002,0.4002,0,0,0,0,0,0,0.407,0.4066,0.4052,0.4051,0.4054,0.4039,0.4037,0.4035,0.4019,0.4016,0.4022,0.402,0.4002,0.4001,0.4,0.4008,0.3991,0.399,0.399,0.4001,0.4002,0.4003,0,0,0,0,0,0,0.407,0.4069,0.4053,0.4058,0.4056,0.404,0.4038,0.4035,0.4032,0.4016,0.4013,0.4022,0.4002,0.4,0.4,0.4007,0.399,0.399,0.4001,0.4002,0.4002,0.4026,0,0,0,0,0,0,0.4071,0.4069,0.4073,0.4058,0.4055,0.4055,0.4038,0.4035,0.4031,0.4029,0.4016,0.4013,0.4001,0.4001,0.4,0.4006,0.3989,0.4,0.4001,0.4002,0.4024,0.4027,0.403,0,0,0,0,0,0.4072,0.408,0.4073,0.4071,0.4059,0.4055,0.4054,0.404,0.4032,0.4035,0.4025,0.4013,0.4006,0.4001,0.4,0.4006,0.4,0.4001,0.4002,0.4023,0.4026,0.4029,0,0,0,0,0,0,0.4095,0.4078,0.407,0.4074,0.4066,0.4051,0.4055,0.4045,0.4039,0.4037,0.4021,0.4018,0.402,0.4013,0.4008,0.4013,0.4001,0.4002,0.4018,0.4021,0.4024,0.4025,0.3989,0,0,0,0,0,0.4101,0.41,0.4084,0.4089,0.4086,0.4071,0.4069,0.4059,0.405,0.4047,0.4037,0.4029,0.4025,0.4022,0.4018,0.4023,0.4019,0.4026,0.4029,0.4031,0.4032,0.4034,0.4036,0.4007,0.4006,0.4006,0,0,0.4113,0.4103,0.4103,0.4094,0.4087,0.4085,0.4069,0.4068,0.4066,0.4047,0.4047,0.4039,0.4028,0.4031,0.4032,0.4025,0.404,0.4033,0.4035,0.4035,0.4035,0.4038,0.4041,0.4007,0.4007,0.4007,0,0,0.4134,0.4126,0.413,0.4123,0.4112,0.4102,0.4103,0.4089,0.4084,0.4083,0.4068,0.4066,0.4059,0.4052,0.4048,0.4065,0.4054,0.4064,0.4078,0.408,0.4082,0.4084,0.409,0.4092,0.4065,0.4065,0.4065,0,0.415,0.4147,0.4132,0.4132,0.4128,0.4111,0.4113,0.4107,0.4096,0.4093,0.4086,0.4077,0.4069,0.407,0.4074,0.4071,0.4071,0.4066,0.4083,0.4085,0.4086,0.4092,0.4094,0.4066,0.4066,0.4066,0.4066,0,0.4167,0.4165,0.4169,0.4158,0.4155,0.4156,0.4141,0.4139,0.413,0.412,0.4119,0.4109,0.4101,0.4101,0.4091,0.4099,0.4096,0.4086,0.4074,0.4091,0.4095,0.4097,0.4068,0.4068,0.4067,0.4067,0,0,0.4203,0.4183,0.4185,0.418,0.4166,0.4165,0.4165,0.4158,0.4156,0.4148,0.4148,0.4142,0.4133,0.4128,0.4117,0.4119,0.4132,0.4109,0.4108,0.4113,0.414,0.4147,0.415,0.4125,0.4125,0.4125,0.414,0,0.4221,0.422,0.4207,0.421,0.4208,0.4191,0.4191,0.4182,0.4173,0.417,0.4159,0.4156,0.4144,0.4141,0.4141,0.4131,0.4137,0.4129,0.4124,0.4124,0.4127,0.4152,0.416,0.4174,0.4142,0.4143,0.4143,0,0.4242,0.4236,0.4239,0.4225,0.4223,0.4224,0.4215,0.4212,0.4202,0.4195,0.419,0.4178,0.4176,0.4165,0.4162,0.4157,0.4153,0.4148,0.4148,0.4147,0.4134,0.4151,0.4179,0.4181,0.4145,0.4145,0.4145,0,0.4267,0.4259,0.426,0.4256,0.424,0.424,0.4233,0.4223,0.4219,0.4212,0.4209,0.4202,0.4198,0.4192,0.4178,0.4171,0.4176,0.4164,0.417,0.4171,0.4172,0.4172,0.42,0.4171,0.4171,0.4171,0.4171,0,0.4289,0.4291,0.4271,0.4271,0.4273,0.4257,0.4259,0.4251,0.4241,0.4239,0.4224,0.4222,0.4204,0.42,0.4189,0.4188,0.4186,0.418,0.4177,0.4182,0.4182,0.4179,0.4178,0.4171,0.4171,0.4171,0.4171,0,0.4317,0.4304,0.4303,0.4288,0.4284,0.4286,0.4273,0.4272,0.4262,0.4259,0.4258,0.4242,0.4236,0.4221,0.4212,0.4205,0.4206,0.4201,0.421,0.4208,0.4215,0.4215,0.4241,0.4244,0.4213,0.4214,0.4214,0,0.4331,0.4333,0.4318,0.4315,0.4309,0.4306,0.4302,0.4286,0.4282,0.4271,0.4271,0.4264,0.4258,0.425,0.4237,0.4229,0.4223,0.4233,0.4222,0.4226,0.4223,0.4223,0.4223,0.4236,0.4236,0.4236,0.4237,0,0.4358,0.4352,0.4347,0.4339,0.4335,0.4329,0.4321,0.432,0.4302,0.4299,0.4293,0.4288,0.4278,0.4272,0.4262,0.4254,0.4242,0.424,0.4241,0.4246,0.425,0.4247,0.4216,0.424,0.4239,0.4239,0.4239,0.4239,0.438,0.438,0.4369,0.4364,0.4357,0.435,0.4349,0.4338,0.4333,0.4324,0.4315,0.431,0.4299,0.4285,0.4278,0.4273,0.4267,0.4269,0.4269,0.4269,0.4271,0.4251,0.4271,0.4271,0.4271,0.4271,0.4271,0,0.4406,0.4398,0.4393,0.4383,0.4379,0.4369,0.4359,0.4356,0.4352,0.4343,0.4337,0.433,0.4323,0.431,0.4301,0.43,0.4294,0.4298,0.4298,0.4296,0.4277,0.4277,0.4303,0.4303,0.4303,0.4303,0.4303,0.4303,0.4419,0.4418,0.441,0.4406,0.4398,0.4393,0.4389,0.4382,0.4374,0.4367,0.4362,0.4353,0.4341,0.4332,0.4325,0.4321,0.4318,0.4324,0.4319,0.4301,0.4298,0.4295,0.4295,0.4324,0.4324,0.4338,0.4338,0.4338]}]]